Flag for Uruguay Weather past 2 weeks in Melo, Uruguay

Now
73 °F

Sunny.


Feels Like: 77 °F
Forecast: 52 / 74 °F
Wind: 3 mph from West

Location: Pelotas Airport

Current Time: Apr 18, 2015 at 1:53:55 PM

Latest Report: Apr 18, 2015 at 1:00 PM


Visibility: 10 mi

Pressure: 29.92 "Hg

Humidity: 47%

Dew point: 52 °F

Location of MeloLocation

Historic Weather in Melo — Graph

°F

Melo temperature yesterday

Maximum temperature yesterday: 82 °F (at 12:00 PM)
Minimum temperature yesterday: 66 °F (at 5:00 PM)
Average temperature yesterday: 72 °F

Past Weeks' High & Low Weather Summary

 TemperatureHumidityPressure
High88 °F (Apr 3, 1:00 PM)100% (Apr 3, 6:00 AM)30.15 "Hg (Apr 3, 6:00 AM)
Low50 °F (Apr 13, 7:00 AM)33% (Apr 3, 1:00 PM)29.74 "Hg (Apr 4, 3:00 PM)
Average69 °F83%30.01 "Hg
* Reported Apr 3 6:00 AM — Apr 18 6:00 AM, Melo, Weather by CustomWeather, © 2015

Note: Actual official high and low records may vary slightly from our data, if they occured in-between our weather recording intervals... More about our weather records

Advertising

Melo weather history for previous 24 hours

 ConditionsComfort  
Time TempWeatherWind HumidityBarometerVisibility
6:00 AM
Sat, Apr 18
59 °FSunny.6 mph100%29.92 "Hg10 mi
5:00 AM61 °FClear.5 mph100%29.89 "Hg10 mi
4:00 AM61 °FClear.8 mph100%29.89 "Hg10 mi
3:00 AM63 °FClear.7 mph100%29.92 "Hg10 mi
2:00 AM64 °FClear.8 mph100%29.92 "Hg10 mi
1:00 AM64 °FClear.8 mph100%29.89 "Hg10 mi
12:00 AM66 °FClear.7 mph100%29.89 "Hg10 mi
11:00 PM
Fri, Apr 17
66 °FClear.5 mph100%29.86 "Hg10 mi
10:00 PM66 °FClear.5 mph100%29.89 "Hg10 mi
9:00 PM66 °FPassing clouds.3 mph100%29.89 "HgN/A
8:00 PM66 °FPassing clouds.2 mph100%29.86 "HgN/A
7:00 PM66 °FLight rain. Passing clouds.7 mph100%29.83 "HgN/A
6:00 PM66 °FPassing clouds.No wind100%29.89 "HgN/A
5:00 PM66 °FThunderstorms. Scattered clouds.9 mph100%29.92 "Hg4 mi
4:00 PM79 °FPassing clouds.1 mph70%29.89 "HgN/A
3:00 PM81 °FScattered clouds.5 mph62%29.89 "HgN/A
2:00 PM82 °FPassing clouds.9 mph58%29.89 "HgN/A
1:00 PM81 °FPassing clouds.10 mph62%29.92 "HgN/A
Weather by CustomWeather, © 2015

See weather overviewHow to use our weather pages